{"data":{"norad_id":64174,"epoch":"2026-09-20T06:13:49.496160Z","epoch_age_seconds":161143,"freshness":"FRESH","line1":"1 64174U 25113E   26263.25960065  .00014292  00000+0  43332-3 0  9991","line2":"2 64174  53.1592 266.7367 0001444  82.2558 277.8608 15.34400521 74867","mean_motion":15.34400521,"eccentricity":0.0001444,"inclination_deg":53.1592,"raan_deg":266.7367,"arg_perigee_deg":82.2558,"mean_anomaly_deg":277.8608,"bstar":0.00043332,"rev_number":7486,"period_min":93.847726215677,"perigee_km":461.71387457867,"apogee_km":463.68950879283,"semimajor_km":6840.8386916857,"source":"CELESTRAK","updated_at":"2026-09-21T09:00:35.243429Z"}}